XNO073V LPFR-EGGD

Flight info

Callsign XNO073V
Flight time 2h 10m
Altitude 36000
Route ELVAR DCT BARDI DCT ZMR DCT NUBLO DCT RONSI DCT DELOG DCT NOVAN DCT NOZHU/N0457F290 DCT SHIRI DCT TOJAQ
Aircraft A320/M-SDE3FGHIRWY/LB1

Departure

Time 2026-05-06 18:43
Airport Faro - Gago Coutinho International Airport (LPFR)

Arrival

Time 2026-05-06 20:54
Airport Bristol Airport (EGGD)
Time Latitude Longitude Altitude Speed Heading
2026-05-06 17:59 37.01918 -7.96837 20 ft 0 kts 10°
2026-05-06 18:33 37.01897 -7.96842 21 ft 4 kts 10°
2026-05-06 18:34 37.01873 -7.96847 21 ft 2 kts 10°
2026-05-06 18:34 37.01849 -7.96849 20 ft 4 kts 340°
2026-05-06 18:34 37.01830 -7.96831 24 ft 4 kts 288°
2026-05-06 18:34 37.01828 -7.96817 21 ft 1 kts 279°
2026-05-06 18:35 37.01828 -7.96816 21 ft 0 kts 279°
2026-05-06 18:37 37.01828 -7.96820 23 ft 1 kts 279°
2026-05-06 18:37 37.01828 -7.96840 20 ft 3 kts 261°
2026-05-06 18:38 37.01813 -7.96869 21 ft 5 kts 218°
2026-05-06 18:38 37.01779 -7.96885 20 ft 8 kts 194°
2026-05-06 18:38 37.01721 -7.96900 22 ft 8 kts 188°
2026-05-06 18:38 37.01668 -7.96856 20 ft 13 kts 111°
2026-05-06 18:39 37.01652 -7.96757 20 ft 11 kts 99°
2026-05-06 18:39 37.01640 -7.96669 22 ft 12 kts 100°
2026-05-06 18:39 37.01614 -7.96496 20 ft 23 kts 99°
2026-05-06 18:40 37.01563 -7.96133 20 ft 19 kts 99°
2026-05-06 18:40 37.01542 -7.95976 22 ft 18 kts 98°
2026-05-06 18:40 37.01511 -7.95857 20 ft 13 kts 135°
2026-05-06 18:40 37.01445 -7.95842 20 ft 0 kts 189°
2026-05-06 18:41 37.01390 -7.95851 20 ft 12 kts 187°
2026-05-06 18:42 37.01351 -7.95919 20 ft 11 kts 272°
2026-05-06 18:42 37.01362 -7.95992 20 ft 0 kts 280°
2026-05-06 18:42 37.01363 -7.96000 20 ft 6 kts 280°
2026-05-06 18:42 37.01393 -7.96219 21 ft 57 kts 280°
2026-05-06 18:43 37.01500 -7.96976 22 ft 118 kts 280°
2026-05-06 18:43 37.01684 -7.98176 126 ft 155 kts 282°
2026-05-06 18:43 37.01992 -7.99531 643 ft 169 kts 287°
2026-05-06 18:43 37.02382 -8.00955 1316 ft 175 kts 290°
2026-05-06 18:44 37.02682 -8.02409 2081 ft 169 kts 278°
2026-05-06 18:44 37.02671 -8.03866 2727 ft 171 kts 274°
2026-05-06 18:44 37.02686 -8.05429 3003 ft 189 kts 281°
2026-05-06 18:44 37.02898 -8.07152 3272 ft 210 kts 285°
2026-05-06 18:45 37.03179 -8.08965 3923 ft 215 kts 286°
2026-05-06 18:45 37.03534 -8.10819 4476 ft 222 kts 299°
2026-05-06 18:45 37.04535 -8.12205 4998 ft 222 kts 335°
2026-05-06 18:45 37.05552 -8.12571 5206 ft 232 kts
2026-05-06 18:46 37.07800 -8.12251 5686 ft 258 kts 11°
2026-05-06 18:46 37.09602 -8.11876 5865 ft 263 kts 11°
2026-05-06 18:46 37.11414 -8.11484 5895 ft 265 kts 11°
2026-05-06 18:46 37.13244 -8.11091 6338 ft 267 kts 11°
2026-05-06 18:47 37.15087 -8.10708 7146 ft 270 kts 10°
2026-05-06 18:47 37.16965 -8.10328 7869 ft 277 kts
2026-05-06 18:47 37.18891 -8.09944 8570 ft 283 kts
2026-05-06 18:47 37.20860 -8.09556 9303 ft 289 kts
2026-05-06 18:48 37.22864 -8.09164 10001 ft 296 kts
2026-05-06 18:48 37.24979 -8.08751 10211 ft 319 kts
2026-05-06 18:48 37.27257 -8.08308 10378 ft 343 kts
2026-05-06 18:48 37.29688 -8.07833 10589 ft 362 kts
2026-05-06 18:49 37.32204 -8.07339 11101 ft 370 kts
2026-05-06 18:49 37.34769 -8.06830 11692 ft 376 kts
2026-05-06 18:49 37.37327 -8.06321 12322 ft 380 kts
2026-05-06 18:49 37.39961 -8.05799 12858 ft 387 kts
2026-05-06 18:50 37.42631 -8.05269 13501 ft 390 kts
2026-05-06 18:50 37.45329 -8.04734 14076 ft 395 kts
2026-05-06 18:50 37.48057 -8.04196 14602 ft 399 kts
2026-05-06 18:50 37.50805 -8.03650 15169 ft 401 kts
2026-05-06 18:51 37.53577 -8.03097 15713 ft 405 kts
2026-05-06 18:51 37.56370 -8.02540 16270 ft 408 kts
2026-05-06 18:51 37.59184 -8.01979 16781 ft 412 kts
2026-05-06 18:51 37.62031 -8.01493 17317 ft 414 kts
2026-05-06 18:52 37.64818 -8.00515 17821 ft 419 kts 19°
2026-05-06 18:52 37.67554 -7.99204 18319 ft 422 kts 20°
2026-05-06 18:52 37.70304 -7.97859 18784 ft 425 kts 20°
2026-05-06 18:52 37.73066 -7.96496 19232 ft 427 kts 20°
2026-05-06 18:53 37.75843 -7.95123 19669 ft 430 kts 20°
2026-05-06 18:53 37.78640 -7.93745 20104 ft 433 kts 20°
2026-05-06 18:53 37.81455 -7.92368 20537 ft 435 kts 19°
2026-05-06 18:53 37.84292 -7.90989 20956 ft 438 kts 19°
2026-05-06 18:54 37.87146 -7.89605 21364 ft 441 kts 19°
2026-05-06 18:54 37.89979 -7.88227 21768 ft 444 kts 19°
2026-05-06 18:54 37.92868 -7.86817 22185 ft 446 kts 19°
2026-05-06 18:54 37.95769 -7.85394 22612 ft 448 kts 19°
2026-05-06 18:55 37.98685 -7.83957 23036 ft 451 kts 19°
2026-05-06 18:55 38.01616 -7.82507 23413 ft 454 kts 19°
2026-05-06 18:55 38.04567 -7.81052 23726 ft 456 kts 19°
2026-05-06 18:55 38.07535 -7.79594 24037 ft 459 kts 19°
2026-05-06 18:56 38.10519 -7.78128 24342 ft 461 kts 19°
2026-05-06 18:56 38.13518 -7.76654 24638 ft 464 kts 19°
2026-05-06 18:56 38.16531 -7.75168 24939 ft 466 kts 19°
2026-05-06 18:56 38.19562 -7.73672 25236 ft 468 kts 19°
2026-05-06 18:57 38.22605 -7.72168 25527 ft 471 kts 19°
2026-05-06 18:57 38.25665 -7.70656 25816 ft 473 kts 19°
2026-05-06 18:57 38.28738 -7.69137 26088 ft 475 kts 19°
2026-05-06 18:57 38.31825 -7.67611 26359 ft 477 kts 19°
2026-05-06 18:58 38.34927 -7.66076 26608 ft 479 kts 19°
2026-05-06 18:58 38.38041 -7.64531 26863 ft 482 kts 19°
2026-05-06 18:58 38.41168 -7.62976 27140 ft 484 kts 19°
2026-05-06 18:58 38.43246 -7.61940 27300 ft 485 kts 19°
2026-05-06 18:59 38.46396 -7.60369 27557 ft 487 kts 19°
2026-05-06 18:59 38.49559 -7.58793 27807 ft 489 kts 19°
2026-05-06 18:59 38.52736 -7.57210 28072 ft 490 kts 19°
2026-05-06 18:59 38.55913 -7.55627 28440 ft 490 kts 19°
2026-05-06 19:00 38.59086 -7.54045 28794 ft 489 kts 19°
2026-05-06 19:00 38.62256 -7.52460 29147 ft 489 kts 19°
2026-05-06 19:00 38.65425 -7.50873 29518 ft 489 kts 19°
2026-05-06 19:00 38.68592 -7.49289 29876 ft 488 kts 19°
2026-05-06 19:01 38.71756 -7.47703 30183 ft 488 kts 19°
2026-05-06 19:01 38.74919 -7.46116 30479 ft 488 kts 19°
2026-05-06 19:01 38.78077 -7.44527 30793 ft 487 kts 19°
2026-05-06 19:01 38.81233 -7.42940 31066 ft 487 kts 19°
2026-05-06 19:02 38.84385 -7.41357 31356 ft 487 kts 19°
2026-05-06 19:02 38.87537 -7.39771 31645 ft 486 kts 19°
2026-05-06 19:02 38.90686 -7.38183 31958 ft 486 kts 19°
2026-05-06 19:02 38.93832 -7.36594 32250 ft 486 kts 19°
2026-05-06 19:03 38.96976 -7.35006 32549 ft 485 kts 19°
2026-05-06 19:03 39.00116 -7.33420 32848 ft 485 kts 18°
2026-05-06 19:03 39.03254 -7.31833 33135 ft 484 kts 18°
2026-05-06 19:03 39.06347 -7.30264 33419 ft 484 kts 18°
2026-05-06 19:04 39.09479 -7.28672 33707 ft 484 kts 18°
2026-05-06 19:04 39.12609 -7.27079 33978 ft 484 kts 18°
2026-05-06 19:04 39.15737 -7.25485 34245 ft 483 kts 18°
2026-05-06 19:04 39.18857 -7.23896 34526 ft 482 kts 18°
2026-05-06 19:05 39.21958 -7.22278 34789 ft 482 kts 22°
2026-05-06 19:05 39.24957 -7.20342 35023 ft 482 kts 24°
2026-05-06 19:05 39.27939 -7.18371 35265 ft 481 kts 24°
2026-05-06 19:05 39.30914 -7.16405 35515 ft 480 kts 24°
2026-05-06 19:06 39.33883 -7.14442 35756 ft 479 kts 24°
2026-05-06 19:06 39.36851 -7.12478 35874 ft 480 kts 24°
2026-05-06 19:06 39.39826 -7.10508 35856 ft 481 kts 24°
2026-05-06 19:07 39.45778 -7.06553 35868 ft 481 kts 24°
2026-05-06 19:07 39.51725 -7.02585 35857 ft 481 kts 24°
2026-05-06 19:08 39.57673 -6.98622 35864 ft 481 kts 24°
2026-05-06 19:08 39.63620 -6.94644 35865 ft 481 kts 24°
2026-05-06 19:09 39.69568 -6.90658 35878 ft 481 kts 25°
2026-05-06 19:09 39.75477 -6.86690 35878 ft 481 kts 25°
2026-05-06 19:10 39.81428 -6.82688 35873 ft 481 kts 24°
2026-05-06 19:10 39.87371 -6.78692 35885 ft 481 kts 24°
2026-05-06 19:11 39.93306 -6.74687 35874 ft 480 kts 25°
2026-05-06 19:11 39.99232 -6.70672 35872 ft 480 kts 24°
2026-05-06 19:12 40.05155 -6.66661 35876 ft 479 kts 25°
2026-05-06 19:12 40.11072 -6.62644 35889 ft 479 kts 25°
2026-05-06 19:13 40.16987 -6.58615 35887 ft 479 kts 25°
2026-05-06 19:13 40.22906 -6.54584 35890 ft 479 kts 25°
2026-05-06 19:14 40.28820 -6.50543 35884 ft 479 kts 25°
2026-05-06 19:14 40.34731 -6.46498 35886 ft 479 kts 25°
2026-05-06 19:15 40.40637 -6.42451 35900 ft 479 kts 25°
2026-05-06 19:15 40.46531 -6.38403 35899 ft 478 kts 25°
2026-05-06 19:16 40.52420 -6.34345 35910 ft 478 kts 25°
2026-05-06 19:16 40.58304 -6.30282 35909 ft 478 kts 25°
2026-05-06 19:17 40.64146 -6.26244 35910 ft 477 kts 25°
2026-05-06 19:17 40.70032 -6.22183 35906 ft 478 kts 25°
2026-05-06 19:18 40.75916 -6.18113 35932 ft 478 kts 25°
2026-05-06 19:18 40.81795 -6.14037 35926 ft 477 kts 25°
2026-05-06 19:19 40.87673 -6.09956 35927 ft 477 kts 25°
2026-05-06 19:19 40.93548 -6.05866 35926 ft 477 kts 25°
2026-05-06 19:20 40.99413 -6.01771 35941 ft 476 kts 25°
2026-05-06 19:20 41.05272 -5.97676 35939 ft 476 kts 25°
2026-05-06 19:21 41.11127 -5.93573 35942 ft 476 kts 25°
2026-05-06 19:21 41.16976 -5.89468 35938 ft 476 kts 25°
2026-05-06 19:22 41.22787 -5.85386 35952 ft 475 kts 26°
2026-05-06 19:22 41.28626 -5.81268 35947 ft 475 kts 26°
2026-05-06 19:23 41.34459 -5.77142 35946 ft 475 kts 26°
2026-05-06 19:23 41.40286 -5.73016 35947 ft 474 kts 26°
2026-05-06 19:24 41.46110 -5.68886 35954 ft 474 kts 26°
2026-05-06 19:24 41.51924 -5.64756 35952 ft 473 kts 26°
2026-05-06 19:25 41.57918 -5.61211 35953 ft 471 kts 20°
2026-05-06 19:25 41.63954 -5.57816 35951 ft 471 kts 20°
2026-05-06 19:26 41.69986 -5.54418 35970 ft 470 kts 20°
2026-05-06 19:26 41.76010 -5.51012 35964 ft 470 kts 20°
2026-05-06 19:27 41.82029 -5.47597 35955 ft 470 kts 21°
2026-05-06 19:27 41.88001 -5.44197 35959 ft 469 kts 21°
2026-05-06 19:28 41.94007 -5.40772 35963 ft 469 kts 21°
2026-05-06 19:28 42.00012 -5.37347 35965 ft 469 kts 21°
2026-05-06 19:29 42.06013 -5.33931 35960 ft 468 kts 21°
2026-05-06 19:29 42.12010 -5.30504 35974 ft 468 kts 21°
2026-05-06 19:30 42.17988 -5.27061 35960 ft 467 kts 21°
2026-05-06 19:30 42.23964 -5.23622 35960 ft 467 kts 21°
2026-05-06 19:31 42.29935 -5.20184 35972 ft 466 kts 21°
2026-05-06 19:31 42.38878 -5.15018 35969 ft 466 kts 21°
2026-05-06 19:32 42.44832 -5.11564 35971 ft 465 kts 21°
2026-05-06 19:32 42.50783 -5.08112 35988 ft 465 kts 21°
2026-05-06 19:33 42.56693 -5.04678 35984 ft 465 kts 21°
2026-05-06 19:33 42.62637 -5.01211 35998 ft 465 kts 21°
2026-05-06 19:34 42.68577 -4.97744 36000 ft 465 kts 21°
2026-05-06 19:34 42.74516 -4.94270 35994 ft 464 kts 21°
2026-05-06 19:35 42.80445 -4.90791 36008 ft 464 kts 21°
2026-05-06 19:35 42.86370 -4.87299 36017 ft 464 kts 21°
2026-05-06 19:36 42.92290 -4.83808 36033 ft 464 kts 21°
2026-05-06 19:36 42.98212 -4.80317 36032 ft 463 kts 21°
2026-05-06 19:37 43.04124 -4.76817 36034 ft 463 kts 21°
2026-05-06 19:37 43.09035 -4.73908 36035 ft 463 kts 21°
2026-05-06 19:38 43.15902 -4.69836 36048 ft 463 kts 21°
2026-05-06 19:38 43.21802 -4.66322 36046 ft 462 kts 21°
2026-05-06 19:39 43.27697 -4.62809 36048 ft 462 kts 21°
2026-05-06 19:39 43.33589 -4.59280 36045 ft 462 kts 21°
2026-05-06 19:40 43.39474 -4.55751 36055 ft 461 kts 21°
2026-05-06 19:40 43.45356 -4.52217 36043 ft 461 kts 21°
2026-05-06 19:41 43.47665 -4.50825 36041 ft 461 kts 21°
2026-05-06 19:41 43.53430 -4.47354 36039 ft 461 kts 21°
2026-05-06 19:42 43.59307 -4.43814 36048 ft 461 kts 21°
2026-05-06 19:42 43.65176 -4.40261 36042 ft 461 kts 21°
2026-05-06 19:43 43.71042 -4.36698 36040 ft 460 kts 21°
2026-05-06 19:43 43.76909 -4.33143 36046 ft 460 kts 21°
2026-05-06 19:44 43.82775 -4.29585 36041 ft 460 kts 22°
2026-05-06 19:44 43.88636 -4.26015 36039 ft 460 kts 22°
2026-05-06 19:45 43.94492 -4.22428 36028 ft 460 kts 22°
2026-05-06 19:45 44.00344 -4.18833 36037 ft 460 kts 22°
2026-05-06 19:46 44.06194 -4.15243 36038 ft 460 kts 22°
2026-05-06 19:46 44.12003 -4.11670 36035 ft 459 kts 22°
2026-05-06 19:47 44.17846 -4.08064 36047 ft 459 kts 22°
2026-05-06 19:47 44.23686 -4.04448 36042 ft 459 kts 22°
2026-05-06 19:48 44.29525 -4.00832 36036 ft 459 kts 22°
2026-05-06 19:48 44.35607 -3.98380 36036 ft 454 kts
2026-05-06 19:49 44.41887 -3.97513 36032 ft 454 kts
2026-05-06 19:49 44.48166 -3.96622 36032 ft 454 kts
2026-05-06 19:50 44.54451 -3.95728 36031 ft 454 kts
2026-05-06 19:50 44.60734 -3.94839 36040 ft 454 kts
2026-05-06 19:51 44.67020 -3.93945 36037 ft 454 kts
2026-05-06 19:51 44.73303 -3.93063 36036 ft 454 kts
2026-05-06 19:52 44.79545 -3.92188 36034 ft 454 kts
2026-05-06 19:52 44.85829 -3.91289 36034 ft 454 kts
2026-05-06 19:53 44.91094 -3.90536 36031 ft 454 kts
2026-05-06 19:53 44.97337 -3.89648 36033 ft 454 kts
2026-05-06 19:54 45.03621 -3.88745 36034 ft 454 kts
2026-05-06 19:54 45.09905 -3.87842 36029 ft 454 kts
2026-05-06 19:55 45.16189 -3.86939 36034 ft 454 kts
2026-05-06 19:55 45.22472 -3.86040 36034 ft 454 kts
2026-05-06 19:56 45.28752 -3.85139 36035 ft 453 kts
2026-05-06 19:56 45.35029 -3.84223 36037 ft 453 kts
2026-05-06 19:57 45.41297 -3.83301 36040 ft 453 kts
2026-05-06 19:57 45.47568 -3.82398 36037 ft 453 kts
2026-05-06 19:58 45.53835 -3.81497 36039 ft 453 kts
2026-05-06 19:58 45.60057 -3.80597 36039 ft 452 kts
2026-05-06 19:59 45.66320 -3.79682 36036 ft 452 kts
2026-05-06 19:59 45.72579 -3.78765 36038 ft 452 kts
2026-05-06 20:00 45.78840 -3.77849 36039 ft 452 kts
2026-05-06 20:00 45.85091 -3.76917 36043 ft 452 kts
2026-05-06 20:01 45.91341 -3.75995 36051 ft 451 kts
2026-05-06 20:01 45.97588 -3.75074 36046 ft 451 kts
2026-05-06 20:02 46.03834 -3.74147 36041 ft 451 kts
2026-05-06 20:02 46.10078 -3.73222 36038 ft 451 kts
2026-05-06 20:03 46.16321 -3.72302 36038 ft 451 kts
2026-05-06 20:03 46.22563 -3.71364 36036 ft 451 kts
2026-05-06 20:04 46.28805 -3.70435 36029 ft 451 kts
2026-05-06 20:04 46.35050 -3.69963 36035 ft 449 kts 358°
2026-05-06 20:05 46.41301 -3.70075 36031 ft 449 kts 358°
2026-05-06 20:05 46.47511 -3.70190 36026 ft 449 kts 358°
2026-05-06 20:06 46.53764 -3.70306 36017 ft 449 kts 358°
2026-05-06 20:06 46.60016 -3.70429 36021 ft 449 kts 358°
2026-05-06 20:07 46.66269 -3.70541 36023 ft 449 kts 357°
2026-05-06 20:07 46.72524 -3.70650 36008 ft 450 kts 357°
2026-05-06 20:08 46.78781 -3.70764 36012 ft 450 kts 358°
2026-05-06 20:08 46.85035 -3.70871 36017 ft 450 kts 358°
2026-05-06 20:09 46.91292 -3.70984 36026 ft 450 kts 358°
2026-05-06 20:09 46.97546 -3.71107 36019 ft 449 kts 358°
2026-05-06 20:10 47.03796 -3.71223 36019 ft 449 kts 358°
2026-05-06 20:10 47.10047 -3.71342 36015 ft 449 kts 358°
2026-05-06 20:11 47.16296 -3.71466 36016 ft 449 kts 358°
2026-05-06 20:11 47.22546 -3.71588 36017 ft 449 kts 358°
2026-05-06 20:12 47.28792 -3.71702 36017 ft 449 kts 358°
2026-05-06 20:12 47.35034 -3.71823 36016 ft 448 kts 358°
2026-05-06 20:13 47.41274 -3.71942 36018 ft 449 kts 358°
2026-05-06 20:13 47.47472 -3.72059 36009 ft 448 kts 358°
2026-05-06 20:14 47.53712 -3.72169 36015 ft 448 kts 358°
2026-05-06 20:14 47.59951 -3.72287 36016 ft 448 kts 358°
2026-05-06 20:15 47.66190 -3.72403 36017 ft 448 kts 358°
2026-05-06 20:15 47.72426 -3.72523 36016 ft 448 kts 358°
2026-05-06 20:16 47.78665 -3.72643 36022 ft 448 kts 358°
2026-05-06 20:16 47.84901 -3.72765 36021 ft 448 kts 358°
2026-05-06 20:17 47.91133 -3.72881 36019 ft 448 kts 358°
2026-05-06 20:17 47.97323 -3.73001 36023 ft 448 kts 358°
2026-05-06 20:18 48.03595 -3.73123 36018 ft 448 kts 358°
2026-05-06 20:18 48.09784 -3.73240 36021 ft 448 kts 358°
2026-05-06 20:19 48.16013 -3.73359 36019 ft 448 kts 358°
2026-05-06 20:19 48.22238 -3.73489 36022 ft 448 kts 358°
2026-05-06 20:20 48.28466 -3.73615 36017 ft 447 kts 358°
2026-05-06 20:20 48.34691 -3.73733 36015 ft 447 kts 358°
2026-05-06 20:21 48.40920 -3.73842 36019 ft 448 kts 358°
2026-05-06 20:21 48.47147 -3.73971 36017 ft 448 kts 358°
2026-05-06 20:22 48.53372 -3.74108 36023 ft 447 kts 358°
2026-05-06 20:22 48.59597 -3.74230 36030 ft 447 kts 358°
2026-05-06 20:23 48.65823 -3.74346 36028 ft 447 kts 358°
2026-05-06 20:23 48.72047 -3.74463 36029 ft 447 kts 358°
2026-05-06 20:24 48.78269 -3.74593 36028 ft 447 kts 358°
2026-05-06 20:24 48.84447 -3.74724 36025 ft 447 kts 358°
2026-05-06 20:25 48.90671 -3.74849 36025 ft 447 kts 358°
2026-05-06 20:25 48.96896 -3.74981 36022 ft 447 kts 358°
2026-05-06 20:26 49.03119 -3.75095 36025 ft 447 kts 358°
2026-05-06 20:26 49.09338 -3.75212 36023 ft 447 kts 358°
2026-05-06 20:27 49.15555 -3.75338 36020 ft 447 kts 358°
2026-05-06 20:27 49.21770 -3.75471 36016 ft 447 kts 357°
2026-05-06 20:28 49.27984 -3.75603 36022 ft 447 kts 357°
2026-05-06 20:28 49.34204 -3.75724 36021 ft 447 kts 357°
2026-05-06 20:29 49.40424 -3.75851 36018 ft 447 kts 357°
2026-05-06 20:29 49.46644 -3.75986 36025 ft 447 kts 357°
2026-05-06 20:30 49.55931 -3.76177 36016 ft 447 kts 357°
2026-05-06 20:31 49.62149 -3.76298 36009 ft 447 kts 357°
2026-05-06 20:31 49.68368 -3.76420 36008 ft 447 kts 358°
2026-05-06 20:32 49.74591 -3.75855 36020 ft 449 kts
2026-05-06 20:32 49.80816 -3.75122 36011 ft 449 kts
2026-05-06 20:33 49.87047 -3.74385 36017 ft 449 kts
2026-05-06 20:33 49.93280 -3.73643 36029 ft 449 kts
2026-05-06 20:34 49.99517 -3.72891 36025 ft 449 kts
2026-05-06 20:34 50.05749 -3.72152 36017 ft 449 kts
2026-05-06 20:35 50.11982 -3.71409 36018 ft 449 kts
2026-05-06 20:35 50.18212 -3.70658 36013 ft 449 kts
2026-05-06 20:35 50.21319 -3.70282 35481 ft 447 kts
2026-05-06 20:36 50.24419 -3.69914 35106 ft 447 kts
2026-05-06 20:36 50.27524 -3.69545 34864 ft 448 kts
2026-05-06 20:36 50.30593 -3.69182 34627 ft 449 kts
2026-05-06 20:36 50.33710 -3.68812 34385 ft 449 kts
2026-05-06 20:37 50.36824 -3.68435 33992 ft 450 kts
2026-05-06 20:37 50.39971 -3.68051 32896 ft 456 kts
2026-05-06 20:37 50.43140 -3.67634 31950 ft 459 kts
2026-05-06 20:37 50.46328 -3.67105 30957 ft 463 kts
2026-05-06 20:38 50.49536 -3.66487 29922 ft 466 kts
2026-05-06 20:38 50.52772 -3.65816 28698 ft 471 kts
2026-05-06 20:38 50.56028 -3.65130 27577 ft 473 kts
2026-05-06 20:38 50.59298 -3.64460 26341 ft 476 kts
2026-05-06 20:39 50.62576 -3.63813 25604 ft 470 kts
2026-05-06 20:39 50.65804 -3.63193 24811 ft 465 kts
2026-05-06 20:39 50.69001 -3.62590 24024 ft 460 kts
2026-05-06 20:39 50.72166 -3.61995 23196 ft 456 kts
2026-05-06 20:40 50.75290 -3.61407 22463 ft 449 kts
2026-05-06 20:40 50.78341 -3.60826 22222 ft 433 kts
2026-05-06 20:40 50.81272 -3.60261 22084 ft 416 kts
2026-05-06 20:40 50.84092 -3.59714 21952 ft 400 kts
2026-05-06 20:41 50.86806 -3.59187 21819 ft 386 kts
2026-05-06 20:41 50.89422 -3.58680 21680 ft 372 kts
2026-05-06 20:41 50.91920 -3.57892 21547 ft 361 kts 17°
2026-05-06 20:41 50.94178 -3.56295 21395 ft 352 kts 30°
2026-05-06 20:42 50.96080 -3.54040 21182 ft 341 kts 42°
2026-05-06 20:42 50.97718 -3.51376 20556 ft 335 kts 45°
2026-05-06 20:42 50.99318 -3.48712 19928 ft 331 kts 45°
2026-05-06 20:42 51.00898 -3.46084 19362 ft 326 kts 45°
2026-05-06 20:43 51.02456 -3.43499 18890 ft 322 kts 45°
2026-05-06 20:43 51.04039 -3.40972 18440 ft 324 kts 39°
2026-05-06 20:43 51.05903 -3.38998 18081 ft 320 kts 25°
2026-05-06 20:43 51.07992 -3.37785 17614 ft 319 kts 11°
2026-05-06 20:44 51.10165 -3.37314 17259 ft 312 kts
2026-05-06 20:44 51.12320 -3.36944 16605 ft 311 kts
2026-05-06 20:44 51.14510 -3.36570 16055 ft 331 kts
2026-05-06 20:44 51.16912 -3.36172 15466 ft 362 kts
2026-05-06 20:45 51.19498 -3.35757 14897 ft 384 kts
2026-05-06 20:45 51.22187 -3.35331 14313 ft 389 kts
2026-05-06 20:45 51.24873 -3.34921 13717 ft 387 kts
2026-05-06 20:45 51.27546 -3.34525 13071 ft 384 kts
2026-05-06 20:46 51.30198 -3.34137 12439 ft 381 kts
2026-05-06 20:46 51.31942 -3.33878 12026 ft 379 kts
2026-05-06 20:46 51.34507 -3.33490 11432 ft 361 kts
2026-05-06 20:46 51.36927 -3.32857 10658 ft 348 kts 17°
2026-05-06 20:47 51.39075 -3.31169 9740 ft 342 kts 36°
2026-05-06 20:47 51.40755 -3.28535 8774 ft 336 kts 54°
2026-05-06 20:47 51.41825 -3.25257 7856 ft 331 kts 71°
2026-05-06 20:47 51.42227 -3.21670 6968 ft 326 kts 89°
2026-05-06 20:48 51.41954 -3.18110 6095 ft 321 kts 105°
2026-05-06 20:48 51.41297 -3.14731 5206 ft 315 kts 108°
2026-05-06 20:48 51.40649 -3.11423 4352 ft 308 kts 107°
2026-05-06 20:48 51.40020 -3.08200 3726 ft 295 kts 107°
2026-05-06 20:49 51.39434 -3.05205 3568 ft 268 kts 107°
2026-05-06 20:49 51.38905 -3.02492 3463 ft 243 kts 107°
2026-05-06 20:49 51.38425 -3.00030 3371 ft 221 kts 107°
2026-05-06 20:49 51.37987 -2.97785 3295 ft 204 kts 107°
2026-05-06 20:50 51.37574 -2.95663 3216 ft 196 kts 106°
2026-05-06 20:50 51.37399 -2.93551 3123 ft 189 kts 88°
2026-05-06 20:50 51.37480 -2.91533 2913 ft 175 kts 86°
2026-05-06 20:50 51.37558 -2.89648 2699 ft 163 kts 86°
2026-05-06 20:51 51.37630 -2.87886 2471 ft 154 kts 86°
2026-05-06 20:51 51.37698 -2.86219 2266 ft 146 kts 86°
2026-05-06 20:51 51.37758 -2.84720 2091 ft 139 kts 86°
2026-05-06 20:51 51.37820 -2.83197 1897 ft 136 kts 86°
2026-05-06 20:52 51.37880 -2.81701 1713 ft 134 kts 87°
2026-05-06 20:52 51.37938 -2.80234 1545 ft 133 kts 86°
2026-05-06 20:52 51.37997 -2.78754 1357 ft 133 kts 86°
2026-05-06 20:52 51.38056 -2.77279 1163 ft 132 kts 86°
2026-05-06 20:53 51.38114 -2.75790 982 ft 135 kts 86°
2026-05-06 20:53 51.38173 -2.74300 787 ft 135 kts 85°
2026-05-06 20:53 51.38231 -2.72821 629 ft 128 kts 86°
2026-05-06 20:53 51.38277 -2.71697 613 ft 53 kts 86°
2026-05-06 20:54 51.38290 -2.71427 603 ft 15 kts 84°
2026-05-06 20:54 51.38304 -2.71175 602 ft 33 kts 87°
2026-05-06 20:54 51.38310 -2.70897 604 ft 15 kts 86°
2026-05-06 20:54 51.38380 -2.70733 614 ft 18 kts 24°
2026-05-06 20:55 51.38393 -2.70727 614 ft 0 kts 13°
2026-05-06 20:56 51.38423 -2.70720 611 ft 6 kts
2026-05-06 20:56 51.38464 -2.70770 616 ft 14 kts 288°
2026-05-06 20:56 51.38466 -2.70949 614 ft 15 kts 268°
2026-05-06 20:57 51.38461 -2.71092 616 ft 11 kts 266°
2026-05-06 20:57 51.38455 -2.71197 618 ft 8 kts 263°
2026-05-06 20:57 51.38450 -2.71283 618 ft 12 kts 266°
2026-05-06 20:57 51.38442 -2.71477 620 ft 20 kts 267°
2026-05-06 20:58 51.38433 -2.71708 606 ft 21 kts 267°
2026-05-06 20:58 51.38436 -2.71818 609 ft 8 kts 297°
2026-05-06 20:58 51.38489 -2.71850 608 ft 6 kts 353°
2026-05-06 20:58 51.38516 -2.71861 608 ft 2 kts 319°
2026-05-06 20:59 51.38517 -2.71869 619 ft 3 kts 295°
2026-05-06 20:59 51.38526 -2.71928 615 ft 1 kts 272°
2026-05-06 20:59 51.38526 -2.71935 617 ft 1 kts 271°
2026-05-06 20:59 51.38526 -2.71944 620 ft 1 kts 272°
2026-05-06 21:00 51.38526 -2.71956 608 ft 2 kts 269°
2026-05-06 21:00 51.38526 -2.71961 617 ft 0 kts 269°